{"data":{"norad_id":45854,"epoch":"2026-09-19T11:11:25.163808Z","epoch_age_seconds":103792,"freshness":"FRESH","line1":"1 45854U 20041A   26262.46626347 -.00000076  00000+0  00000+0 0  9991","line2":"2 45854  56.7276  25.2934 0068159 206.0899 151.8924  2.00573669 45927","mean_motion":2.00573669,"eccentricity":0.0068159,"inclination_deg":56.7276,"raan_deg":25.2934,"arg_perigee_deg":206.0899,"mean_anomaly_deg":151.8924,"bstar":0,"rev_number":4592,"period_min":717.94069838748,"perigee_km":20000.295640753,"apogee_km":20362.348877481,"semimajor_km":26559.459259117,"source":"CELESTRAK","updated_at":"2026-09-20T09:00:46.120245Z"}}